[[{"header":{"parameterUnit":"m.s-1","parameterCategory":1,"la1":30.2991,"la2":30.254,"lo1":-89.0895,"lo2":-89.0444,"dy":0.0017,"dx":0.0017,"nx":28,"ny":28,"refTime":"2023-10-12T21:00:00:Z","depth":0,"parameterNumber":2,"parameterNumberName":"U-component_of_WINDS"},"data":[0,0,0,0,0,0,0,0,0,0,0,0,0,0,0,0,0,0,0,0,0,0,0,0,0,0,0,0,0,0,0,0,0,0,0,0,0,0,0,0,0,0,0,0,0,0,0,0,0,0,0,0,0,0,0,0,0,0,3.4027,3.4028,0,3.4063,3.4063,3.4063,3.3936,3.3933,3.3929,3.3925,3.3959,3.3963,3.3968,0,0,0,0,0,0,0,0,0,0,0,0,0,3.3848,3.3852,3.4027,3.4028,3.4028,3.4062,3.4063,3.4063,3.3937,3.3932,3.3928,3.3923,3.3958,3.3963,3.3968,0,0,0,0,0,0,0,0,0,0,0,0,0,3.3909,3.3853,3.4027,3.3969,3.3964,3.4062,3.4063,3.4064,3.3938,3.3932,3.3927,3.3921,3.3956,3.3962,3.3969,3.4123,0,0,3.3989,3.3992,0,0,0,0,0,0,0,0,3.3906,3.3916,3.3977,3.3973,3.3968,3.3989,3.4012,3.4084,3.3939,3.3948,3.3925,3.3919,3.3974,3.3978,3.3997,3.4125,3.4126,3.399,3.3994,3.3997,3.3998,0,0,0,0,0,0,0,3.3902,3.3913,3.4041,3.3978,3.3973,3.3941,3.3943,3.4025,3.3992,3.3947,3.3938,3.3944,3.397,3.3991,3.3997,3.4127,3.3989,3.3995,3.3999,3.4002,3.4383,3.4389,0,0,0,0,0,0,3.3905,3.3911,3.404,3.4042,3.3922,3.3949,3.3951,3.3988,3.3991,3.3986,3.3949,3.3938,3.3983,3.399,3.3998,3.4179,3.3996,3.4003,3.4007,3.4377,3.4385,3.4391,0,0,0,0,0,0,3.3902,3.3918,3.4038,3.3974,3.3987,3.3958,3.4,3.3992,3.4013,3.3992,3.3985,3.3977,3.3978,3.3989,3.4093,3.4178,3.4006,3.4012,3.437,3.4379,3.4388,3.4543,0,0,0,0,0,0,3.3897,3.3918,3.3977,3.3976,3.3991,3.4135,3.4006,3.3997,3.4025,3.4011,3.4017,3.4012,3.3975,3.4084,3.41,3.4184,3.4017,3.4362,3.4374,3.4385,3.453,3.4556,3.4578,0,0,0,0,0,3.3891,3.4018,3.398,3.3997,3.4064,3.414,3.4148,3.4103,3.4033,3.4091,3.4078,3.4012,3.4167,3.4096,3.4113,3.42,3.4356,3.4371,3.4384,3.4519,3.4551,3.4578,0,0,0,0,0,0,3.4028,3.4017,3.3975,3.4106,3.4125,3.4118,3.4191,3.4138,3.4177,3.4162,3.4104,3.4107,3.4222,3.4221,3.4143,3.435,3.4249,3.4267,3.4346,3.4376,3.44,3.4397,3.4022,0,0,0,0,0,3.4074,3.4137,3.4123,3.424,3.4252,3.422,3.4251,3.4215,3.4232,3.4239,3.4234,3.4252,3.4305,3.434,3.4388,3.4529,3.4528,3.4598,3.4622,3.4642,3.4658,3.4733,3.4763,3.4437,3.4436,3.4436,0,0,3.4168,3.417,3.4213,3.4268,3.4278,3.4344,3.4228,3.4302,3.435,3.425,3.4349,3.4346,3.4362,3.4487,3.4541,3.449,3.4748,3.466,3.4676,3.4681,3.475,3.4781,3.4809,3.4446,3.4444,3.4443,0,0,3.4373,3.4382,3.4479,3.4493,3.4511,3.4489,3.4513,3.4515,3.4509,3.4607,3.4534,3.459,3.4682,3.4697,3.4716,3.4929,3.487,3.4946,3.5073,3.5146,3.5172,3.5194,3.527,3.5298,3.4962,3.4963,3.4963,0,3.4488,3.4585,3.4536,3.4616,3.4642,3.4556,3.4655,3.4669,3.4702,3.4722,3.4664,3.4778,3.4783,3.491,3.4962,3.4981,3.5005,3.4945,3.5172,3.5194,3.5215,3.5286,3.5314,3.4972,3.4971,3.497,3.4969,0,3.4725,3.4794,3.487,3.4905,3.494,3.5029,3.4993,3.5033,3.4995,3.4979,3.508,3.5084,3.513,3.5158,3.512,3.5279,3.5247,3.5182,3.508,3.5256,3.5322,3.5349,3.4985,3.4981,3.4979,3.4976,0,0,3.5016,3.5023,3.5052,3.5067,3.5081,3.5133,3.5218,3.5264,3.53,3.5326,3.5395,3.5476,3.5416,3.5439,3.5402,3.5467,3.5635,3.5394,3.5393,3.5438,3.5809,3.5857,3.5889,3.5596,3.5601,3.5605,3.5807,0,3.5217,3.5363,3.5322,3.5468,3.5531,3.5451,3.5525,3.5541,3.5529,3.558,3.5565,3.5623,3.5541,3.5554,3.5614,3.5602,3.5708,3.5586,3.5659,3.5662,3.5656,3.5924,3.5975,3.6166,3.5833,3.5837,3.584,0,3.5471,3.5508,3.5661,3.5665,3.569,3.5757,3.5796,3.5846,3.5863,3.585,3.5876,3.5826,3.5909,3.5808,3.592,3.5839,3.5866,3.5864,3.587,3.5874,3.5761,3.5934,3.6225,3.6254,3.588,3.5877,3.5874,0,3.5668,3.5755,3.5858,3.5873,3.5881,3.593,3.5935,3.5946,3.5977,3.6012,3.6031,3.6074,3.6098,3.6133,3.6096,3.6025,3.6215,3.611,3.6205,3.6206,3.6247,3.6245,3.6546,3.6267,3.6267,3.6266,3.6266,0,3.5896,3.5993,3.5946,3.6009,3.6115,3.6067,3.6173,3.6168,3.618,3.624,3.6173,3.6231,3.618,3.6233,3.6205,3.6302,3.6314,3.6304,3.6296,3.631,3.6311,3.6326,3.6311,3.6274,3.6272,3.6271,3.6269,0,3.6132,3.6106,3.6212,3.6211,3.6213,3.6291,3.629,3.6348,3.6331,3.6409,3.6424,3.6398,3.6457,3.6424,3.6485,3.6466,3.6592,3.6566,3.6587,3.658,3.6676,3.6668,3.6997,3.7037,3.6734,3.6737,3.6739,0,3.6279,3.6352,3.636,3.6396,3.6406,3.6465,3.6496,3.6452,3.6487,3.6513,3.6568,3.6621,3.6662,3.676,3.6746,3.6792,3.6765,3.6878,3.6772,3.6784,3.6766,3.6762,3.6768,3.6899,3.6902,3.6905,3.6907,0,3.6543,3.6527,3.6575,3.662,3.6659,3.6692,3.6718,3.6752,3.6708,3.6751,3.6811,3.6843,3.6905,3.6959,3.6999,3.7003,3.6948,3.6941,3.6965,3.698,3.6989,3.6984,3.6644,3.6933,3.6931,3.6929,3.6928,3.6926,3.6738,3.6799,3.6814,3.687,3.6886,3.6913,3.6968,3.6959,3.7009,3.7057,3.7027,3.7098,3.7113,3.7161,3.7173,3.7227,3.7181,3.7217,3.7226,3.7235,3.7247,3.6982,3.7234,3.7233,3.7232,3.7232,3.7231,0,3.6997,3.7004,3.7056,3.7096,3.7141,3.7087,3.7114,3.7154,3.7218,3.7237,3.7279,3.7348,3.74,3.7391,3.7438,3.7483,3.7459,3.7497,3.7492,3.7494,3.7286,3.726,3.7516,3.7516,3.7516,3.7516,3.7516,3.7515,3.7137,3.7237,3.7223,3.733,3.7335,3.7404,3.7425,3.7449,3.7464,3.7545,3.7588,3.7582,3.759,3.7637,3.7683,3.7679,3.7698,3.7746,3.7732,3.7537,3.7509,3.7482,3.7457,3.7751,3.7751,3.7936,3.7937,3.7939]},{"header":{"parameterUnit":"m.s-1","parameterCategory":1,"la1":30.2991,"la2":30.254,"lo1":-89.0895,"lo2":-89.0444,"dy":0.0017,"dx":0.0017,"nx":28,"ny":28,"refTime":"2023-10-12T21:00:00:Z","depth":0,"parameterNumber":3,"parameterNumberName":"V-component_of_WINDS"},"data":[0,0,0,0,0,0,0,0,0,0,0,0,0,0,0,0,0,0,0,0,0,0,0,0,0,0,0,0,0,0,0,0,0,0,0,0,0,0,0,0,0,0,0,0,0,0,0,0,0,0,0,0,0,0,0,0,0,0,0.8174,0.8174,0,0.8136,0.8136,0.8135,0.8096,0.8096,0.8095,0.8095,0.8055,0.8055,0.8054,0,0,0,0,0,0,0,0,0,0,0,0,0,0.8211,0.8211,0.8174,0.8174,0.8173,0.8136,0.8136,0.8135,0.8096,0.8096,0.8095,0.8094,0.8056,0.8055,0.8054,0,0,0,0,0,0,0,0,0,0,0,0,0,0.8186,0.8211,0.8174,0.8149,0.8147,0.8136,0.8136,0.8135,0.8097,0.8096,0.8095,0.8094,0.8056,0.8055,0.8054,0.8065,0,0,0.8052,0.8051,0,0,0,0,0,0,0,0,0.8188,0.8185,0.8153,0.8151,0.8148,0.812,0.8134,0.8112,0.8097,0.8116,0.8095,0.8094,0.8078,0.8075,0.807,0.8063,0.8062,0.8052,0.8051,0.8051,0.805,0,0,0,0,0,0,0,0.819,0.8186,0.8159,0.8153,0.815,0.814,0.8135,0.813,0.8101,0.8114,0.8111,0.8107,0.8076,0.807,0.8068,0.8061,0.8052,0.8051,0.805,0.805,0.806,0.8061,0,0,0,0,0,0,0.8195,0.8188,0.816,0.8158,0.8166,0.814,0.8135,0.813,0.8101,0.8096,0.8108,0.8105,0.8072,0.8069,0.8067,0.8077,0.8051,0.805,0.8049,0.8059,0.806,0.8061,0,0,0,0,0,0,0.8196,0.8193,0.8162,0.8172,0.8167,0.814,0.8135,0.813,0.8124,0.8097,0.8091,0.8107,0.8071,0.8068,0.8065,0.8075,0.805,0.8049,0.8058,0.806,0.8061,0.8098,0,0,0,0,0,0,0.8197,0.8194,0.8198,0.8173,0.8167,0.8162,0.8135,0.8129,0.8123,0.8119,0.8095,0.809,0.8071,0.8067,0.8065,0.8073,0.8048,0.8057,0.8059,0.806,0.8095,0.81,0.8104,0,0,0,0,0,0.8199,0.821,0.8199,0.8195,0.8172,0.8162,0.8159,0.8136,0.8124,0.8128,0.811,0.8091,0.8074,0.8067,0.8064,0.8073,0.8057,0.8058,0.806,0.8094,0.8099,0.8104,0,0,0,0,0,0,0.8238,0.8207,0.8193,0.8197,0.8183,0.8156,0.816,0.8143,0.8132,0.8129,0.8101,0.8096,0.8097,0.8084,0.8077,0.8081,0.8063,0.8064,0.8089,0.8094,0.8098,0.8101,0.8047,0,0,0,0,0,0.8247,0.8242,0.8215,0.822,0.8214,0.8188,0.8183,0.8167,0.8151,0.8145,0.8127,0.8112,0.8103,0.8098,0.8088,0.8093,0.8087,0.8097,0.8102,0.8105,0.8107,0.8107,0.8111,0.8067,0.8067,0.8067,0,0,0.8265,0.8247,0.8246,0.8228,0.8215,0.821,0.8184,0.818,0.8176,0.8144,0.8141,0.8127,0.8108,0.8109,0.8109,0.8099,0.8117,0.8107,0.811,0.811,0.8109,0.8114,0.8117,0.8068,0.8068,0.8067,0,0,0.8296,0.8283,0.8286,0.8273,0.8254,0.8236,0.8237,0.8212,0.8202,0.8198,0.8174,0.8168,0.8154,0.8141,0.8133,0.8157,0.8139,0.8155,0.8177,0.8178,0.8181,0.8184,0.8192,0.8196,0.8156,0.8157,0.8157,0,0.8322,0.8314,0.8289,0.8286,0.8279,0.8249,0.8251,0.824,0.8219,0.8214,0.8203,0.8183,0.8169,0.8166,0.8172,0.8166,0.8165,0.8158,0.8183,0.8185,0.8188,0.8195,0.8198,0.8159,0.8158,0.8158,0.8158,0,0.8346,0.834,0.8345,0.8325,0.8317,0.8317,0.8292,0.8287,0.8271,0.8254,0.825,0.8231,0.8216,0.8214,0.8199,0.8209,0.8203,0.8188,0.8169,0.8194,0.8201,0.8204,0.8161,0.8161,0.816,0.816,0,0,0.8401,0.8366,0.8368,0.8358,0.8334,0.8329,0.8327,0.8313,0.8309,0.8295,0.8292,0.828,0.8265,0.8255,0.8238,0.8239,0.8258,0.8223,0.8222,0.823,0.8267,0.8279,0.8283,0.8246,0.8246,0.8247,0.8269,0,0.8428,0.8423,0.84,0.8402,0.8396,0.8367,0.8365,0.835,0.8334,0.8326,0.8308,0.83,0.8282,0.8275,0.8275,0.8256,0.8265,0.8254,0.8242,0.8242,0.8248,0.8286,0.8298,0.832,0.8271,0.8271,0.8272,0,0.8459,0.8446,0.8447,0.8422,0.8419,0.8418,0.8402,0.8395,0.8377,0.8365,0.8354,0.8334,0.8329,0.8311,0.8303,0.8296,0.829,0.8279,0.828,0.8278,0.8259,0.8285,0.8326,0.833,0.8276,0.8275,0.8275,0,0.8499,0.8482,0.848,0.8472,0.8443,0.8443,0.843,0.8411,0.8403,0.839,0.8384,0.837,0.8362,0.8351,0.8327,0.8317,0.8322,0.8302,0.8311,0.8312,0.8314,0.8314,0.8355,0.831,0.831,0.831,0.831,0,0.8531,0.8533,0.8497,0.8496,0.8497,0.847,0.8471,0.8456,0.8438,0.8433,0.8407,0.8403,0.8372,0.8363,0.8344,0.834,0.8337,0.8327,0.8322,0.8329,0.833,0.8325,0.8322,0.8311,0.8311,0.8311,0.8311,0,0.8576,0.8552,0.8548,0.8521,0.8514,0.8515,0.8491,0.8488,0.847,0.8464,0.8461,0.8433,0.8421,0.8396,0.8378,0.8366,0.8366,0.8357,0.8372,0.8369,0.8379,0.8379,0.8418,0.8421,0.8375,0.8375,0.8376,0,0.8598,0.8599,0.8571,0.8565,0.8554,0.8546,0.8538,0.8511,0.8504,0.8481,0.8481,0.8468,0.8456,0.8438,0.8416,0.8402,0.8392,0.8406,0.839,0.8396,0.8391,0.8392,0.8391,0.841,0.8411,0.8412,0.8412,0,0.864,0.8628,0.8618,0.8603,0.8594,0.8581,0.8567,0.8564,0.8533,0.8526,0.8514,0.8505,0.8486,0.8472,0.8454,0.844,0.8421,0.8417,0.8419,0.8426,0.8435,0.8429,0.8382,0.8417,0.8416,0.8416,0.8416,0.8415,0.8673,0.8672,0.8652,0.8641,0.8627,0.8614,0.861,0.8591,0.8581,0.8564,0.8548,0.8537,0.8517,0.8491,0.8478,0.8469,0.8459,0.8461,0.8461,0.8462,0.8465,0.8436,0.8465,0.8465,0.8465,0.8465,0.8465,0,0.8713,0.8699,0.8689,0.8669,0.866,0.8643,0.8626,0.8619,0.861,0.8593,0.8581,0.8567,0.8553,0.8529,0.8514,0.851,0.8501,0.8507,0.8507,0.8504,0.8475,0.8475,0.8515,0.8515,0.8515,0.8515,0.8515,0.8515,0.8733,0.8729,0.8715,0.8704,0.8689,0.8678,0.867,0.8657,0.8643,0.8629,0.8617,0.8602,0.8581,0.8564,0.855,0.8543,0.8538,0.8547,0.8538,0.8511,0.8506,0.8502,0.8502,0.8547,0.8547,0.8567,0.8567,0.8567]}]]